CZ-4C DEB, 43270

Orbit data source: Space-Track

CZ-4C DEB, 43270 is space debris in SSO originally from a launch on Sat, 31 Mar 2018 UTC launched from the Taiyaun Space Center, China (TSC). Debris objects in space refer to the collection of defunct objects orbiting the Earth. Examples of debris include non-operational satellites, rocket bodies, and fragments generated from explosions, collisions, or faulty payload assembly.

Loading next visibility...
CZ-4C DEB details
Identifier
43270, 2018-031J
Orbit
SSO
Last TLE update1 day ago
Origin
Flag of CNCNSA (CN / PRC)
ManufacturerUnknown
MissionSpacecraft
Bus & MotorUnknown
MassUnknown
Launch date (UTC)
2018-03-31 (7 years ago)
Launch vehicleUnknown
Launch site
Taiyaun Space Center, China (TSC)
Object type
Payload
Rocket body
Debris
Shape & HBRUnknown
Radar Cross SectionSmall (<0.1 m²)

Expand to show TLE details & history

TLE from 1 day ago
0 CZ-4C DEB
1 43270U 18031J   24360.44384647  .00002253  00000-0  30968-3 0  9995
2 43270  97.7960  62.5481 0004008 232.9752 127.1094 14.79278464373250
Epoch: 2024-12-25T10:39Z
Definitive object data (Epoch: 2024-12-25T10:39:08.335Z)
Latitude0.00005°
Longitude168.32585°
Altitude636.322 km
Speed7.539 km/s
True Right ascension04h 10m 11s
True Declination0° 00' 00"
Sunlit
Object was in full shadow at TLE epoch
Visualization TLE readout
Latitude11.77957°
Longitude-9.03249°
Altitude632.507 km
Speed7.544 km/s
Apparent Right ascension18h 57m 37s
Apparent Declination-19° 13' 58"
Sunlit
Object is in daylight
Visualization observer readout
Local Sidereal Time11:07:03
Azimuth88.054° E
Elevation-33.184°
Doppler factor1
Orbital elements
Apogee altitude631.448 km
Perigee altitude625.831 km
Semi-major axis7,006.777 km
Eccentricity0.0004008
Inclination97.796°
RAAN62.5481°
Arg. of periapsis232.9752°
True anomaly127.14602°
Mean anomaly127.1094°
Eccentric anomaly127.12771°
Mean motion3.70055 °/min
BSTAR0.00030968
Orbital period97.28 mins
Loading maneuver chart data...
Loading historical data...
Loading historical data...
Loading historical data...
Loading historical data...
Loading historical data...
Loading historical data...
Loading historical data...

CZ-4C DEB Visibility forecast

Observer location: undefined°, undefined

Span
Click to sort rows by Start time (UTC) header in descending order
Start Az.
Max El. time (UTC)
Max El. Az.
Max El.
End time (UTC)
End Az.
6 mins2024-12-26 16:27:39.586Z44.921° NE2024-12-26 16:30:39.586Z97.108° ESE23.405°2024-12-26 16:33:39.586Z147.364° SSE
5 mins2024-12-26 18:04:39.586Z333.751° NNW2024-12-26 18:06:39.586Z295.739° NW24.222°2024-12-26 18:09:39.586Z241.07° WSW
4 mins2024-12-27 03:24:39.586Z92.898° ESE2024-12-27 03:25:39.586Z75.497° E18.831°2024-12-27 03:28:39.586Z26.323° NE
6 mins2024-12-27 04:59:39.586Z207.486° SW2024-12-27 05:02:39.586Z276.575° WNW29.426°2024-12-27 05:05:39.586Z325.669° NNW
|